Time,TemperatureF,DewpointF,PressureIn,WindDirection,WindDirectionDegrees,WindSpeedMPH,WindSpeedGustMPH,Humidity,HourlyPrecipIn,Conditions,Clouds,dailyrainin,SoftwareType,DateUTC
2013-07-30 00:03:00,57.0,-99.9,29.99,West,271,5.0,8.0,-999,-99.99,,,-99.99,,2013-07-30 07:03:00,
2013-07-30 00:33:00,57.0,-99.9,30.00,West,260,8.0,15.0,-999,-99.99,,,-99.99,,2013-07-30 07:33:00,
2013-07-30 01:03:00,57.0,-99.9,30.01,WSW,256,6.0,12.0,-999,-99.99,,,-99.99,,2013-07-30 08:03:00,
2013-07-30 02:03:00,57.0,-99.9,30.01,West,268,4.0,10.0,-999,-99.99,,,-99.99,,2013-07-30 09:03:00,
2013-07-30 02:23:00,57.0,-99.9,30.01,WSW,255,10.0,15.0,-999,-99.99,,,-99.99,,2013-07-30 09:23:00,
2013-07-30 02:43:00,57.0,-99.9,30.01,West,263,6.0,10.0,-999,-99.99,,,-99.99,,2013-07-30 09:43:00,
2013-07-30 02:53:00,56.0,-99.9,30.01,WSW,251,6.0,11.0,-999,-99.99,,,-99.99,,2013-07-30 09:53:00,
2013-07-30 03:03:00,57.0,-99.9,30.01,West,265,6.0,10.0,-999,-99.99,,,-99.99,,2013-07-30 10:03:00,
2013-07-30 03:44:00,56.0,-99.9,30.01,WSW,253,6.0,8.0,-999,-99.99,,,-99.99,,2013-07-30 10:44:00,
2013-07-30 04:33:00,56.0,-99.9,30.01,West,262,6.0,10.0,-999,-99.99,,,-99.99,,2013-07-30 11:33:00,
2013-07-30 04:43:00,56.0,-99.9,30.01,West,262,6.0,10.0,-999,-99.99,,,-99.99,,2013-07-30 11:43:00,
2013-07-30 04:53:00,56.0,-99.9,30.01,West,273,6.0,9.0,-999,-99.99,,,-99.99,,2013-07-30 11:53:00,
2013-07-30 05:33:00,56.0,-99.9,30.02,West,268,7.0,9.0,-999,-99.99,,,-99.99,,2013-07-30 12:33:00,
2013-07-30 05:42:00,56.0,-99.9,30.02,West,266,8.0,11.0,-999,-99.99,,,-99.99,,2013-07-30 12:42:00,
2013-07-30 06:02:00,56.0,-99.9,30.02,West,265,8.0,11.0,-999,-99.99,,,-99.99,,2013-07-30 13:02:00,
2013-07-30 07:03:00,57.0,-99.9,30.04,WSW,254,5.0,11.0,-999,-99.99,,,-99.99,,2013-07-30 14:03:00,
2013-07-30 08:02:00,57.0,-99.9,30.05,West,264,7.0,12.0,-999,-99.99,,,-99.99,,2013-07-30 15:02:00,
2013-07-30 08:44:00,58.0,-99.9,30.07,WSW,250,4.0,8.0,-999,-99.99,,,-99.99,,2013-07-30 15:44:00,
2013-07-30 09:02:00,57.0,-99.9,30.07,WSW,252,4.0,8.0,-999,-99.99,,,-99.99,,2013-07-30 16:02:00,
2013-07-30 09:12:00,58.0,-99.9,30.07,West,272,4.0,10.0,-999,-99.99,,,-99.99,,2013-07-30 16:12:00,
2013-07-30 09:23:00,58.0,-99.9,30.07,West,277,3.0,8.0,-999,-99.99,,,-99.99,,2013-07-30 16:23:00,
2013-07-30 09:44:00,57.0,-99.9,30.08,West,272,8.0,11.0,-999,-99.99,,,-99.99,,2013-07-30 16:44:00,
2013-07-30 10:02:00,58.0,-99.9,30.08,SW,221,5.0,9.0,-999,-99.99,,,-99.99,,2013-07-30 17:02:00,
2013-07-30 10:43:00,58.0,-99.9,-100.00,North,-999,-999.0,-999.0,-999,-99.99,,,-99.99,,2013-07-30 17:43:00,
2013-07-30 11:43:00,59.0,-99.9,-100.00,North,-999,-999.0,-999.0,-999,-99.99,,,-99.99,,2013-07-30 18:43:00,
2013-07-30 12:03:00,60.0,-99.9,-100.00,North,-999,-999.0,-999.0,-999,-99.99,,,-99.99,,2013-07-30 19:03:00,
2013-07-30 12:44:00,60.0,-99.9,-100.00,North,-999,-999.0,-999.0,-999,-99.99,,,-99.99,,2013-07-30 19:44:00,
2013-07-30 13:02:00,60.0,-99.9,-100.00,North,-999,-999.0,-999.0,-999,-99.99,,,-99.99,,2013-07-30 20:02:00,
2013-07-30 13:52:00,60.0,-99.9,-100.00,North,-999,-999.0,-999.0,-999,-99.99,,,-99.99,,2013-07-30 20:52:00,
2013-07-30 15:02:00,60.0,-99.9,-100.00,North,-999,-999.0,-999.0,-999,-99.99,,,-99.99,,2013-07-30 22:02:00,
2013-07-30 15:12:00,61.0,-99.9,-100.00,North,-999,-999.0,-999.0,-999,-99.99,,,-99.99,,2013-07-30 22:12:00,
2013-07-30 15:32:00,60.0,-99.9,-100.00,North,-999,-999.0,-999.0,-999,-99.99,,,-99.99,,2013-07-30 22:32:00,
2013-07-30 15:43:00,61.0,-99.9,-100.00,North,-999,-999.0,-999.0,-999,-99.99,,,-99.99,,2013-07-30 22:43:00,
2013-07-30 15:53:00,60.0,-99.9,-100.00,North,-999,-999.0,-999.0,-999,-99.99,,,-99.99,,2013-07-30 22:53:00,
2013-07-30 16:02:00,60.0,-99.9,-100.00,North,-999,-999.0,-999.0,-999,-99.99,,,-99.99,,2013-07-30 23:02:00,
2013-07-30 16:13:00,60.0,-99.9,-100.00,North,-999,-999.0,-999.0,-999,-99.99,,,-99.99,,2013-07-30 23:13:00,
2013-07-30 16:53:00,60.0,-99.9,-100.00,North,-999,-999.0,-999.0,-999,-99.99,,,-99.99,,2013-07-30 23:53:00,
2013-07-30 17:02:00,60.0,-99.9,-100.00,North,-999,-999.0,-999.0,-999,-99.99,,,-99.99,,2013-07-31 00:02:00,
2013-07-30 17:12:00,59.0,-99.9,-100.00,North,-999,-999.0,-999.0,-999,-99.99,,,-99.99,,2013-07-31 00:12:00,
2013-07-30 17:32:00,59.0,-99.9,-100.00,North,-999,-999.0,-999.0,-999,-99.99,,,-99.99,,2013-07-31 00:32:00,
2013-07-30 17:43:00,59.0,-99.9,-100.00,North,-999,-999.0,-999.0,-999,-99.99,,,-99.99,,2013-07-31 00:43:00,
2013-07-30 18:02:00,59.0,-99.9,-100.00,North,-999,-999.0,-999.0,-999,-99.99,,,-99.99,,2013-07-31 01:02:00,
2013-07-30 19:03:00,57.0,-99.9,-100.00,North,-999,-999.0,-999.0,-999,-99.99,,,-99.99,,2013-07-31 02:03:00,
2013-07-30 19:12:00,58.0,-99.9,-100.00,North,-999,-999.0,-999.0,-999,-99.99,,,-99.99,,2013-07-31 02:12:00,
2013-07-30 19:43:00,57.0,-99.9,-100.00,North,-999,-999.0,-999.0,-999,-99.99,,,-99.99,,2013-07-31 02:43:00,
2013-07-30 20:02:00,56.0,-99.9,-100.00,North,-999,-999.0,-999.0,-999,-99.99,,,-99.99,,2013-07-31 03:02:00,
2013-07-30 20:22:00,56.0,-99.9,-100.00,North,-999,-999.0,-999.0,-999,-99.99,,,-99.99,,2013-07-31 03:22:00,
2013-07-30 21:02:00,55.0,-99.9,-100.00,North,-999,-999.0,-999.0,-999,-99.99,,,-99.99,,2013-07-31 04:02:00,
2013-07-30 21:32:00,55.0,-99.9,-100.00,North,-999,-999.0,-999.0,-999,-99.99,,,-99.99,,2013-07-31 04:32:00,
2013-07-30 21:42:00,55.0,-99.9,-100.00,North,-999,-999.0,-999.0,-999,-99.99,,,-99.99,,2013-07-31 04:42:00,
2013-07-30 21:53:00,55.0,-99.9,-100.00,North,-999,-999.0,-999.0,-999,-99.99,,,-99.99,,2013-07-31 04:53:00,
2013-07-30 22:02:00,54.0,-99.9,-100.00,North,-999,-999.0,-999.0,-999,-99.99,,,-99.99,,2013-07-31 05:02:00,
2013-07-30 22:12:00,54.0,-99.9,-100.00,North,-999,-999.0,-999.0,-999,-99.99,,,-99.99,,2013-07-31 05:12:00,
2013-07-30 22:22:00,54.0,-99.9,-100.00,North,-999,-999.0,-999.0,-999,-99.99,,,-99.99,,2013-07-31 05:22:00,
2013-07-30 22:32:00,54.0,-99.9,-100.00,North,-999,-999.0,-999.0,-999,-99.99,,,-99.99,,2013-07-31 05:32:00,
2013-07-30 22:43:00,54.0,-99.9,-100.00,North,-999,-999.0,-999.0,-999,-99.99,,,-99.99,,2013-07-31 05:43:00,
2013-07-30 22:52:00,54.0,-99.9,-100.00,North,-999,-999.0,-999.0,-999,-99.99,,,-99.99,,2013-07-31 05:52:00,
2013-07-30 23:02:00,54.0,-99.9,-100.00,North,-999,-999.0,-999.0,-999,-99.99,,,-99.99,,2013-07-31 06:02:00,
2013-07-30 23:32:00,54.0,-99.9,-100.00,North,-999,-999.0,-999.0,-999,-99.99,,,-99.99,,2013-07-31 06:32:00,
2013-07-30 23:43:00,54.0,-99.9,-100.00,North,-999,-999.0,-999.0,-999,-99.99,,,-99.99,,2013-07-31 06:43:00,